Location: �quirre
(50.4736°N, 2.2351°E)
Time: 03:25:06
(UTC+00:00)

Cosmos 1513 Rocket - Pass Details

Date: 07 August 2020
Orbit: 939 x 1009 km, 82.9° (Epoch: 19 September)

Event Time Altitude Azimuth Distance (km) Brightness Sun altitude
Exits shadow 00:37:36 45° 197° (SSW) 1,348 4.7 -22.6°
Maximum altitude 00:39:47 83° 280° (W) 1,020 4.5 -22.5°
Drops below altitude 10° 00:46:16 10° 9° (N) 2,801 8.0 -22.3°
Sets 00:48:49 0° 10° (N) 3,755 9.1 -22.2°
